Year,Month,Day,Hour,Minute,Value (Times are PST for windspeed in km/hr)
2008,06,06,00,00,4.30
2008,06,06,00,01,6.60
2008,06,06,00,02,6.30
2008,06,06,00,03,7.80
2008,06,06,00,04,5.30
2008,06,06,00,05,5.40
2008,06,06,00,06,9.00
2008,06,06,00,07,3.70
2008,06,06,00,08,9.40
2008,06,06,00,09,7.70
2008,06,06,00,10,4.40
2008,06,06,00,11,4.30
2008,06,06,00,12,2.90
2008,06,06,00,13,2.60
2008,06,06,00,14,4.20
2008,06,06,00,15,1.80
2008,06,06,00,16,5.20
2008,06,06,00,17,1.20
2008,06,06,00,18,1.50
2008,06,06,00,19,4.50
2008,06,06,00,20,2.80
2008,06,06,00,21,4.40
2008,06,06,00,22,7.00
2008,06,06,00,23,3.70
2008,06,06,00,24,5.60
2008,06,06,00,25,5.60
2008,06,06,00,26,6.10
2008,06,06,00,27,5.20
2008,06,06,00,28,6.40
2008,06,06,00,29,6.20
2008,06,06,00,30,8.90
2008,06,06,00,31,5.10
2008,06,06,00,32,5.00
2008,06,06,00,33,7.60
2008,06,06,00,34,6.20
2008,06,06,00,35,11.70
2008,06,06,00,36,10.90
2008,06,06,00,37,7.20
2008,06,06,00,38,4.90
2008,06,06,00,39,8.50
2008,06,06,00,40,4.20
2008,06,06,00,41,2.60
2008,06,06,00,42,12.40
2008,06,06,00,43,7.40
2008,06,06,00,44,5.30
2008,06,06,00,45,8.40
2008,06,06,00,46,6.40
2008,06,06,00,47,8.80
2008,06,06,00,48,0.70
2008,06,06,00,49,5.00
2008,06,06,00,50,6.60
2008,06,06,00,51,5.40
2008,06,06,00,52,7.20
2008,06,06,00,53,9.90
2008,06,06,00,54,6.90
2008,06,06,00,55,5.70
2008,06,06,00,56,3.30
2008,06,06,00,57,2.60
2008,06,06,00,58,3.90
2008,06,06,00,59,3.50
2008,06,06,01,00,4.40
2008,06,06,01,01,2.10
2008,06,06,01,02,2.20
2008,06,06,01,03,7.90
2008,06,06,01,04,7.20
2008,06,06,01,05,1.20
2008,06,06,01,06,6.40
2008,06,06,01,07,3.70
2008,06,06,01,08,1.10
2008,06,06,01,09,3.30
2008,06,06,01,10,5.40
2008,06,06,01,11,1.50
2008,06,06,01,12,8.70
2008,06,06,01,13,9.50
2008,06,06,01,14,5.40
2008,06,06,01,15,5.80
2008,06,06,01,16,6.10
2008,06,06,01,17,7.10
2008,06,06,01,18,2.70
2008,06,06,01,19,6.60
2008,06,06,01,20,4.50
2008,06,06,01,21,5.60
2008,06,06,01,22,4.40
2008,06,06,01,23,8.60
2008,06,06,01,24,3.60
2008,06,06,01,25,3.00
2008,06,06,01,26,6.30
2008,06,06,01,27,1.70
2008,06,06,01,28,5.20
2008,06,06,01,29,0.60
2008,06,06,01,30,3.10
2008,06,06,01,31,2.60
2008,06,06,01,32,5.20
2008,06,06,01,33,4.40
2008,06,06,01,34,0.50
2008,06,06,01,35,3.90
2008,06,06,01,36,1.40
2008,06,06,01,37,3.60
2008,06,06,01,38,2.20
2008,06,06,01,39,0.50
2008,06,06,01,40,2.50
2008,06,06,01,41,0.80
2008,06,06,01,42,2.70
2008,06,06,01,43,4.00
2008,06,06,01,44,6.20
2008,06,06,01,45,3.10
2008,06,06,01,46,1.50
2008,06,06,01,47,1.40
2008,06,06,01,48,2.70
2008,06,06,01,49,4.50
2008,06,06,01,50,1.10
2008,06,06,01,51,6.40
2008,06,06,01,52,3.60
2008,06,06,01,53,4.30
2008,06,06,01,54,2.70
2008,06,06,01,55,6.10
2008,06,06,01,56,4.20
2008,06,06,01,57,4.70
2008,06,06,01,58,4.00
2008,06,06,01,59,0.60
2008,06,06,02,00,4.40
2008,06,06,02,01,2.00
2008,06,06,02,02,1.20
2008,06,06,02,03,1.80
2008,06,06,02,04,3.80
2008,06,06,02,05,1.50
2008,06,06,02,06,0.00
2008,06,06,02,07,1.00
2008,06,06,02,08,1.20
2008,06,06,02,09,1.50
2008,06,06,02,10,0.70
2008,06,06,02,11,2.20
2008,06,06,02,12,0.90
2008,06,06,02,13,1.00
2008,06,06,02,14,1.10
2008,06,06,02,15,0.00
2008,06,06,02,16,1.40
2008,06,06,02,17,2.10
2008,06,06,02,18,0.30
2008,06,06,02,19,0.00
2008,06,06,02,20,0.00
2008,06,06,02,21,0.00
2008,06,06,02,22,0.00
2008,06,06,02,23,0.00
2008,06,06,02,24,0.00
2008,06,06,02,25,0.50
2008,06,06,02,26,0.30
2008,06,06,02,27,0.00
2008,06,06,02,28,0.00
2008,06,06,02,29,0.00
2008,06,06,02,30,0.10
2008,06,06,02,31,0.00
2008,06,06,02,32,0.00
2008,06,06,02,33,0.10
2008,06,06,02,34,0.00
2008,06,06,02,35,0.00
2008,06,06,02,36,0.00
2008,06,06,02,37,0.00
2008,06,06,02,38,0.00
2008,06,06,02,39,0.00
2008,06,06,02,40,0.00
2008,06,06,02,41,0.00
2008,06,06,02,42,0.00
2008,06,06,02,43,0.00
2008,06,06,02,44,0.00
2008,06,06,02,45,0.00
2008,06,06,02,46,0.00
2008,06,06,02,47,0.00
2008,06,06,02,48,0.00
2008,06,06,02,49,0.00
2008,06,06,02,50,0.00
2008,06,06,02,51,0.00
2008,06,06,02,52,0.00
2008,06,06,02,53,0.20
2008,06,06,02,54,0.70
2008,06,06,02,55,0.30
2008,06,06,02,56,0.00
2008,06,06,02,57,0.00
2008,06,06,02,58,0.00
2008,06,06,02,59,0.00
2008,06,06,03,00,0.00
2008,06,06,03,01,0.00
2008,06,06,03,02,0.80
2008,06,06,03,03,0.90
2008,06,06,03,04,0.00
2008,06,06,03,05,0.60
2008,06,06,03,06,0.00
2008,06,06,03,07,0.00
2008,06,06,03,08,0.00
2008,06,06,03,09,0.50
2008,06,06,03,10,0.10
2008,06,06,03,11,0.00
2008,06,06,03,12,0.00
2008,06,06,03,13,0.00
2008,06,06,03,14,0.00
2008,06,06,03,15,0.00
2008,06,06,03,16,0.00
2008,06,06,03,17,0.00
2008,06,06,03,18,0.00
2008,06,06,03,19,0.00
2008,06,06,03,20,1.00
2008,06,06,03,21,0.10
2008,06,06,03,22,0.30
2008,06,06,03,23,0.00
2008,06,06,03,24,0.40
2008,06,06,03,25,1.50
2008,06,06,03,26,1.40
2008,06,06,03,27,0.00
2008,06,06,03,28,0.00
2008,06,06,03,29,0.00
2008,06,06,03,30,0.10
2008,06,06,03,31,0.00
2008,06,06,03,32,0.00
2008,06,06,03,33,0.00
2008,06,06,03,34,0.20
2008,06,06,03,35,1.10
2008,06,06,03,36,0.00
2008,06,06,03,37,0.90
2008,06,06,03,38,0.00
2008,06,06,03,39,0.00
2008,06,06,03,40,2.30
2008,06,06,03,41,0.50
2008,06,06,03,42,1.00
2008,06,06,03,43,2.20
2008,06,06,03,44,1.30
2008,06,06,03,45,0.40
2008,06,06,03,46,0.00
2008,06,06,03,47,0.00
2008,06,06,03,48,0.00
2008,06,06,03,49,0.00
2008,06,06,03,50,0.00
2008,06,06,03,51,0.00
2008,06,06,03,52,0.00
2008,06,06,03,53,0.00
2008,06,06,03,54,0.00
2008,06,06,03,55,0.00
2008,06,06,03,56,0.00
2008,06,06,03,57,0.60
2008,06,06,03,58,0.00
2008,06,06,03,59,0.00
2008,06,06,04,00,0.00
2008,06,06,04,01,0.00
2008,06,06,04,02,0.20
2008,06,06,04,03,1.10
2008,06,06,04,04,2.10
2008,06,06,04,05,0.70
2008,06,06,04,06,0.90
2008,06,06,04,07,2.20
2008,06,06,04,08,1.60
2008,06,06,04,09,0.00
2008,06,06,04,10,0.70
2008,06,06,04,11,2.30
2008,06,06,04,12,0.90
2008,06,06,04,13,2.00
2008,06,06,04,14,1.00
2008,06,06,04,15,3.80
2008,06,06,04,16,0.00
2008,06,06,04,17,2.30
2008,06,06,04,18,1.10
2008,06,06,04,19,0.30
2008,06,06,04,20,0.60
2008,06,06,04,21,0.90
2008,06,06,04,22,2.30
2008,06,06,04,23,0.00
2008,06,06,04,24,0.30
2008,06,06,04,25,3.00
2008,06,06,04,26,2.00
2008,06,06,04,27,3.10
2008,06,06,04,28,0.90
2008,06,06,04,29,0.80
2008,06,06,04,30,2.70
2008,06,06,04,31,1.00
2008,06,06,04,32,1.20
2008,06,06,04,33,0.00
2008,06,06,04,34,0.00
2008,06,06,04,35,2.40
2008,06,06,04,36,2.40
2008,06,06,04,37,0.20
2008,06,06,04,38,0.00
2008,06,06,04,39,0.60
2008,06,06,04,40,1.50
2008,06,06,04,41,0.70
2008,06,06,04,42,0.70
2008,06,06,04,43,2.70
2008,06,06,04,44,1.00
2008,06,06,04,45,1.50
2008,06,06,04,46,0.60
2008,06,06,04,47,3.10
2008,06,06,04,48,3.00
2008,06,06,04,49,1.90
2008,06,06,04,50,2.00
2008,06,06,04,51,2.80
2008,06,06,04,52,0.90
2008,06,06,04,53,0.10
2008,06,06,04,54,1.40
2008,06,06,04,55,0.40
2008,06,06,04,56,0.00
2008,06,06,04,57,0.00
2008,06,06,04,58,0.10
2008,06,06,04,59,1.20
2008,06,06,05,00,0.10
2008,06,06,05,01,2.00
2008,06,06,05,02,0.10
2008,06,06,05,03,0.00
2008,06,06,05,04,0.00
2008,06,06,05,05,1.50
2008,06,06,05,06,0.70
2008,06,06,05,07,0.20
2008,06,06,05,08,0.00
2008,06,06,05,09,0.00
2008,06,06,05,10,0.70
2008,06,06,05,11,0.70
2008,06,06,05,12,1.40
2008,06,06,05,13,0.10
2008,06,06,05,14,0.90
2008,06,06,05,15,0.10
2008,06,06,05,16,0.00
2008,06,06,05,17,0.00
2008,06,06,05,18,0.00
2008,06,06,05,19,0.00
2008,06,06,05,20,0.00
2008,06,06,05,21,0.00
2008,06,06,05,22,0.50
2008,06,06,05,23,0.00
2008,06,06,05,24,2.60
2008,06,06,05,25,1.10
2008,06,06,05,26,0.40
2008,06,06,05,27,2.60
2008,06,06,05,28,2.90
2008,06,06,05,29,0.80
2008,06,06,05,30,1.90
2008,06,06,05,31,1.80
2008,06,06,05,32,1.40
2008,06,06,05,33,1.00
2008,06,06,05,34,0.00
2008,06,06,05,35,0.00
2008,06,06,05,36,0.70
2008,06,06,05,37,1.60
2008,06,06,05,38,1.70
2008,06,06,05,39,0.10
2008,06,06,05,40,1.80
2008,06,06,05,41,1.30
2008,06,06,05,42,3.50
2008,06,06,05,43,2.40
2008,06,06,05,44,4.20
2008,06,06,05,45,3.80
2008,06,06,05,46,3.50
2008,06,06,05,47,2.80
2008,06,06,05,48,1.40
2008,06,06,05,49,5.00
2008,06,06,05,50,2.80
2008,06,06,05,51,4.60
2008,06,06,05,52,4.30
2008,06,06,05,53,0.10
2008,06,06,05,54,3.50
2008,06,06,05,55,3.50
2008,06,06,05,56,0.40
2008,06,06,05,57,0.40
2008,06,06,05,58,2.30
2008,06,06,05,59,2.70
2008,06,06,06,00,0.80
2008,06,06,06,01,3.50
2008,06,06,06,02,2.80
2008,06,06,06,03,5.40
2008,06,06,06,04,6.30
2008,06,06,06,05,2.80
2008,06,06,06,06,2.60
2008,06,06,06,07,6.20
2008,06,06,06,08,2.20
2008,06,06,06,09,0.90
2008,06,06,06,10,1.00
2008,06,06,06,11,1.40
2008,06,06,06,12,0.30
2008,06,06,06,13,3.00
2008,06,06,06,14,0.40
2008,06,06,06,15,1.40
2008,06,06,06,16,1.30
2008,06,06,06,17,2.30
2008,06,06,06,18,2.40
2008,06,06,06,19,0.60
2008,06,06,06,20,1.80
2008,06,06,06,21,3.40
2008,06,06,06,22,2.40
2008,06,06,06,23,0.40
2008,06,06,06,24,0.20
2008,06,06,06,25,1.10
2008,06,06,06,26,4.50
2008,06,06,06,27,3.70
2008,06,06,06,28,2.70
2008,06,06,06,29,2.90
2008,06,06,06,30,1.80
2008,06,06,06,31,1.60
2008,06,06,06,32,2.90
2008,06,06,06,33,0.90
2008,06,06,06,34,3.20
2008,06,06,06,35,3.10
2008,06,06,06,36,2.90
2008,06,06,06,37,2.90
2008,06,06,06,38,2.30
2008,06,06,06,39,2.80
2008,06,06,06,40,2.00
2008,06,06,06,41,5.10
2008,06,06,06,42,2.00
2008,06,06,06,43,5.20
2008,06,06,06,44,2.10
2008,06,06,06,45,4.10
2008,06,06,06,46,1.90
2008,06,06,06,47,0.50
2008,06,06,06,48,1.00
2008,06,06,06,49,0.00
2008,06,06,06,50,2.80
2008,06,06,06,51,3.10
2008,06,06,06,52,4.40
2008,06,06,06,53,0.50
2008,06,06,06,54,0.60
2008,06,06,06,55,4.80
2008,06,06,06,56,5.10
2008,06,06,06,57,2.00
2008,06,06,06,58,1.30
2008,06,06,06,59,2.30
2008,06,06,07,00,3.10
2008,06,06,07,01,3.70
2008,06,06,07,02,2.80
2008,06,06,07,03,2.50
2008,06,06,07,04,1.10
2008,06,06,07,05,2.70
2008,06,06,07,06,1.90
2008,06,06,07,07,4.70
2008,06,06,07,08,2.00
2008,06,06,07,09,0.60
2008,06,06,07,10,0.00
2008,06,06,07,11,1.70
2008,06,06,07,12,2.70
2008,06,06,07,13,4.70
2008,06,06,07,14,2.00
2008,06,06,07,15,1.70
2008,06,06,07,16,0.20
2008,06,06,07,17,0.50
2008,06,06,07,18,1.90
2008,06,06,07,19,3.30
2008,06,06,07,20,4.20
2008,06,06,07,21,1.60
2008,06,06,07,22,1.90
2008,06,06,07,23,1.50
2008,06,06,07,24,1.40
2008,06,06,07,25,0.40
2008,06,06,07,26,2.40
2008,06,06,07,27,0.50
2008,06,06,07,28,2.00
2008,06,06,07,29,3.10
2008,06,06,07,30,1.20
2008,06,06,07,31,0.90
2008,06,06,07,32,1.90
2008,06,06,07,33,4.30
2008,06,06,07,34,3.20
2008,06,06,07,35,0.90
2008,06,06,07,36,1.60
2008,06,06,07,37,2.50
2008,06,06,07,38,3.50
2008,06,06,07,39,3.30
2008,06,06,07,40,3.00
2008,06,06,07,41,2.10
2008,06,06,07,42,0.10
2008,06,06,07,43,0.10
2008,06,06,07,44,2.10
2008,06,06,07,45,4.40
2008,06,06,07,46,5.80
2008,06,06,07,47,4.80
2008,06,06,07,48,2.60
2008,06,06,07,49,2.50
2008,06,06,07,50,2.70
2008,06,06,07,51,3.70
2008,06,06,07,52,3.60
2008,06,06,07,53,0.60
2008,06,06,07,54,4.90
2008,06,06,07,55,4.00
2008,06,06,07,56,2.20
2008,06,06,07,57,1.30
2008,06,06,07,58,1.90
2008,06,06,07,59,4.10
2008,06,06,08,00,3.90
2008,06,06,08,01,3.60
2008,06,06,08,02,0.90
2008,06,06,08,03,1.70
2008,06,06,08,04,0.20
2008,06,06,08,05,1.40
2008,06,06,08,06,3.50
2008,06,06,08,07,3.20
2008,06,06,08,08,1.70
2008,06,06,08,09,0.90
2008,06,06,08,10,2.30
2008,06,06,08,11,3.00
2008,06,06,08,12,1.60
2008,06,06,08,13,0.00
2008,06,06,08,14,3.80
2008,06,06,08,15,2.90
2008,06,06,08,16,2.20
2008,06,06,08,17,0.20
2008,06,06,08,18,1.10
2008,06,06,08,19,2.40
2008,06,06,08,20,3.50
2008,06,06,08,21,1.10
2008,06,06,08,22,3.40
2008,06,06,08,23,1.30
2008,06,06,08,24,1.20
2008,06,06,08,25,4.60
2008,06,06,08,26,3.20
2008,06,06,08,27,3.00
2008,06,06,08,28,3.50
2008,06,06,08,29,0.40
2008,06,06,08,30,3.20
2008,06,06,08,31,3.60
2008,06,06,08,32,3.90
2008,06,06,08,33,2.60
2008,06,06,08,34,2.70
2008,06,06,08,35,1.60
2008,06,06,08,36,1.40
2008,06,06,08,37,0.80
2008,06,06,08,38,3.30
2008,06,06,08,39,4.40
2008,06,06,08,40,1.80
2008,06,06,08,41,2.40
2008,06,06,08,42,3.20
2008,06,06,08,43,2.30
2008,06,06,08,44,0.40
2008,06,06,08,45,1.70
2008,06,06,08,46,2.00
2008,06,06,08,47,3.00
2008,06,06,08,48,2.70
2008,06,06,08,49,3.70
2008,06,06,08,50,2.10
2008,06,06,08,51,1.00
2008,06,06,08,52,2.40
2008,06,06,08,53,3.40
2008,06,06,08,54,0.60
2008,06,06,08,55,2.50
2008,06,06,08,56,1.90
2008,06,06,08,57,1.80
2008,06,06,08,58,0.50
2008,06,06,08,59,0.90
2008,06,06,09,00,0.10
2008,06,06,09,01,0.20
2008,06,06,09,02,2.00
2008,06,06,09,03,3.70
2008,06,06,09,04,3.90
2008,06,06,09,05,0.80
2008,06,06,09,06,0.90
2008,06,06,09,07,1.60
2008,06,06,09,08,1.00
2008,06,06,09,09,2.50
2008,06,06,09,10,2.80
2008,06,06,09,11,2.00
2008,06,06,09,12,3.30
2008,06,06,09,13,3.10
2008,06,06,09,14,1.90
2008,06,06,09,15,0.20
2008,06,06,09,16,0.80
2008,06,06,09,17,3.40
2008,06,06,09,18,4.90
2008,06,06,09,19,5.80
2008,06,06,09,20,5.10
2008,06,06,09,21,5.00
2008,06,06,09,22,2.10
2008,06,06,09,23,3.90
2008,06,06,09,24,4.30
2008,06,06,09,25,3.40
2008,06,06,09,26,3.50
2008,06,06,09,27,3.20
2008,06,06,09,28,3.70
2008,06,06,09,29,2.70
2008,06,06,09,30,0.50
2008,06,06,09,31,0.00
2008,06,06,09,32,0.00
2008,06,06,09,33,2.00
2008,06,06,09,34,2.70
2008,06,06,09,35,1.50
2008,06,06,09,36,1.30
2008,06,06,09,37,0.40
2008,06,06,09,38,1.80
2008,06,06,09,39,3.00
2008,06,06,09,40,1.30
2008,06,06,09,41,1.40
2008,06,06,09,42,2.00
2008,06,06,09,43,1.50
2008,06,06,09,44,2.10
2008,06,06,09,45,1.40
2008,06,06,09,46,3.70
2008,06,06,09,47,4.70
2008,06,06,09,48,5.40
2008,06,06,09,49,4.30
2008,06,06,09,50,2.40
2008,06,06,09,51,3.00
2008,06,06,09,52,3.60
2008,06,06,09,53,4.20
2008,06,06,09,54,4.60
2008,06,06,09,55,4.60
2008,06,06,09,56,2.80
2008,06,06,09,57,3.60
2008,06,06,09,58,2.90
2008,06,06,09,59,1.40
2008,06,06,10,00,4.00
2008,06,06,10,01,1.70
2008,06,06,10,02,2.30
2008,06,06,10,03,4.20
2008,06,06,10,04,2.90
2008,06,06,10,05,3.80
2008,06,06,10,06,1.30
2008,06,06,10,07,1.00
2008,06,06,10,08,0.40
2008,06,06,10,09,1.70
2008,06,06,10,10,2.30
2008,06,06,10,11,3.90
2008,06,06,10,12,2.20
2008,06,06,10,13,3.30
2008,06,06,10,14,1.80
2008,06,06,10,15,1.00
2008,06,06,10,16,1.50
2008,06,06,10,17,4.30
2008,06,06,10,18,2.50
2008,06,06,10,19,3.60
2008,06,06,10,20,3.70
2008,06,06,10,21,4.50
2008,06,06,10,22,3.80
2008,06,06,10,23,1.70
2008,06,06,10,24,2.90
2008,06,06,10,25,6.20
2008,06,06,10,26,4.40
2008,06,06,10,27,5.00
2008,06,06,10,28,7.00
2008,06,06,10,29,3.90
2008,06,06,10,30,2.30
2008,06,06,10,31,1.40
2008,06,06,10,32,3.40
2008,06,06,10,33,3.30
2008,06,06,10,34,2.70
2008,06,06,10,35,5.50
2008,06,06,10,36,1.30
2008,06,06,10,37,2.10
2008,06,06,10,38,3.40
2008,06,06,10,39,2.40
2008,06,06,10,40,2.10
2008,06,06,10,41,3.50
2008,06,06,10,42,1.70
2008,06,06,10,43,1.60
2008,06,06,10,44,5.70
2008,06,06,10,45,6.00
2008,06,06,10,46,6.50
2008,06,06,10,47,5.30
2008,06,06,10,48,4.70
2008,06,06,10,49,5.40
2008,06,06,10,50,1.30
2008,06,06,10,51,3.00
2008,06,06,10,52,0.50
2008,06,06,10,53,0.80
2008,06,06,10,54,2.10
2008,06,06,10,55,2.80
2008,06,06,10,56,2.70
2008,06,06,10,57,3.90
2008,06,06,10,58,0.80
2008,06,06,10,59,0.90
2008,06,06,11,00,2.60
2008,06,06,11,01,4.80
2008,06,06,11,02,3.80
2008,06,06,11,03,3.90
2008,06,06,11,04,4.30
2008,06,06,11,05,4.50
2008,06,06,11,06,2.30
2008,06,06,11,07,0.70
2008,06,06,11,08,0.90
2008,06,06,11,09,3.60
2008,06,06,11,10,3.10
2008,06,06,11,11,6.10
2008,06,06,11,12,8.20
2008,06,06,11,13,5.30
2008,06,06,11,14,5.90
2008,06,06,11,15,2.40
2008,06,06,11,16,3.70
2008,06,06,11,17,4.20
2008,06,06,11,18,2.30
2008,06,06,11,19,2.10
2008,06,06,11,20,4.10
2008,06,06,11,21,1.30
2008,06,06,11,22,3.10
2008,06,06,11,23,2.70
2008,06,06,11,24,4.10
2008,06,06,11,25,4.10
2008,06,06,11,26,2.80
2008,06,06,11,27,2.10
2008,06,06,11,28,1.80
2008,06,06,11,29,1.10
2008,06,06,11,30,4.80
2008,06,06,11,31,4.10
2008,06,06,11,32,2.60
2008,06,06,11,33,1.80
2008,06,06,11,34,1.80
2008,06,06,11,35,9.00
2008,06,06,11,36,8.00
2008,06,06,11,37,2.60
2008,06,06,11,38,4.20
2008,06,06,11,39,1.00
2008,06,06,11,40,2.10
2008,06,06,11,41,7.90
2008,06,06,11,42,7.70
2008,06,06,11,43,6.90
2008,06,06,11,44,4.20
2008,06,06,11,45,2.20
2008,06,06,11,46,7.80
2008,06,06,11,47,8.30
2008,06,06,11,48,7.70
2008,06,06,11,49,7.60
2008,06,06,11,50,7.60
2008,06,06,11,51,9.70
2008,06,06,11,52,6.50
2008,06,06,11,53,3.90
2008,06,06,11,54,3.40
2008,06,06,11,55,5.10
2008,06,06,11,56,2.80
2008,06,06,11,57,5.00
2008,06,06,11,58,3.70
2008,06,06,11,59,3.80
2008,06,06,12,00,3.90
2008,06,06,12,01,3.00
2008,06,06,12,02,1.10
2008,06,06,12,03,6.00
2008,06,06,12,04,5.20
2008,06,06,12,05,7.80
2008,06,06,12,06,8.50
2008,06,06,12,07,2.40
2008,06,06,12,08,4.20
2008,06,06,12,09,6.60
2008,06,06,12,10,4.80
2008,06,06,12,11,5.90
2008,06,06,12,12,1.90
2008,06,06,12,13,4.20
2008,06,06,12,14,4.70
2008,06,06,12,15,2.00
2008,06,06,12,16,4.50
2008,06,06,12,17,4.30
2008,06,06,12,18,4.70
2008,06,06,12,19,4.90
2008,06,06,12,20,2.80
2008,06,06,12,21,4.30
2008,06,06,12,22,6.10
2008,06,06,12,23,1.80
2008,06,06,12,24,2.50
2008,06,06,12,25,5.10
2008,06,06,12,26,3.60
2008,06,06,12,27,2.60
2008,06,06,12,28,6.10
2008,06,06,12,29,3.50
2008,06,06,12,30,4.20
2008,06,06,12,31,4.00
2008,06,06,12,32,4.70
2008,06,06,12,33,6.10
2008,06,06,12,34,4.00
2008,06,06,12,35,3.10
2008,06,06,12,36,4.30
2008,06,06,12,37,7.90
2008,06,06,12,38,4.90
2008,06,06,12,39,7.30
2008,06,06,12,40,5.90
2008,06,06,12,41,2.30
2008,06,06,12,42,4.90
2008,06,06,12,43,3.80
2008,06,06,12,44,2.50
2008,06,06,12,45,3.90
2008,06,06,12,46,2.00
2008,06,06,12,47,1.60
2008,06,06,12,48,4.50
2008,06,06,12,49,6.00
2008,06,06,12,50,5.00
2008,06,06,12,51,3.80
2008,06,06,12,52,4.30
2008,06,06,12,53,4.60
2008,06,06,12,54,5.80
2008,06,06,12,55,3.10
2008,06,06,12,56,4.30
2008,06,06,12,57,1.20
2008,06,06,12,58,2.80
2008,06,06,12,59,2.20
2008,06,06,13,00,3.50
2008,06,06,13,01,6.60
2008,06,06,13,02,3.10
2008,06,06,13,03,5.60
2008,06,06,13,04,2.90
2008,06,06,13,05,2.80
2008,06,06,13,06,3.00
2008,06,06,13,07,2.40
2008,06,06,13,08,5.10
2008,06,06,13,09,6.10
2008,06,06,13,10,3.80
2008,06,06,13,11,4.40
2008,06,06,13,12,5.10
2008,06,06,13,13,5.90
2008,06,06,13,14,2.70
2008,06,06,13,15,4.50
2008,06,06,13,16,7.70
2008,06,06,13,17,8.60
2008,06,06,13,18,4.30
2008,06,06,13,19,6.50
2008,06,06,13,20,6.40
2008,06,06,13,21,4.00
2008,06,06,13,22,6.40
2008,06,06,13,23,4.50
2008,06,06,13,24,4.00
2008,06,06,13,25,3.10
2008,06,06,13,26,6.30
2008,06,06,13,27,5.10
2008,06,06,13,28,2.80
2008,06,06,13,29,6.50
2008,06,06,13,30,4.20
2008,06,06,13,31,3.00
2008,06,06,13,32,4.70
2008,06,06,13,33,7.10
2008,06,06,13,34,3.70
2008,06,06,13,35,2.30
2008,06,06,13,36,3.80
2008,06,06,13,37,6.20
2008,06,06,13,38,7.60
2008,06,06,13,39,7.70
2008,06,06,13,40,8.20
2008,06,06,13,41,7.00
2008,06,06,13,42,8.10
2008,06,06,13,43,7.40
2008,06,06,13,44,8.20
2008,06,06,13,45,3.70
2008,06,06,13,46,6.90
2008,06,06,13,47,7.20
2008,06,06,13,48,7.40
2008,06,06,13,49,4.60
2008,06,06,13,50,9.20
2008,06,06,13,51,6.10
2008,06,06,13,52,2.80
2008,06,06,13,53,6.00
2008,06,06,13,54,4.50
2008,06,06,13,55,3.00
2008,06,06,13,56,6.20
2008,06,06,13,57,6.00
2008,06,06,13,58,3.40
2008,06,06,13,59,5.70
2008,06,06,14,00,6.80
2008,06,06,14,01,4.60
2008,06,06,14,02,5.60
2008,06,06,14,03,8.40
2008,06,06,14,04,7.80
2008,06,06,14,05,8.40
2008,06,06,14,06,7.70
2008,06,06,14,07,8.90
2008,06,06,14,08,11.30
2008,06,06,14,09,7.80
2008,06,06,14,10,8.80
2008,06,06,14,11,4.40
2008,06,06,14,12,6.40
2008,06,06,14,13,5.30
2008,06,06,14,14,7.00
2008,06,06,14,15,8.10
2008,06,06,14,16,5.80
2008,06,06,14,17,8.50
2008,06,06,14,18,8.10
2008,06,06,14,19,7.20
2008,06,06,14,20,5.30
2008,06,06,14,21,4.80
2008,06,06,14,22,3.50
2008,06,06,14,23,6.90
2008,06,06,14,24,3.20
2008,06,06,14,25,6.70
2008,06,06,14,26,7.20
2008,06,06,14,27,7.20
2008,06,06,14,28,6.40
2008,06,06,14,29,4.20
2008,06,06,14,30,7.50
2008,06,06,14,31,8.70
2008,06,06,14,32,6.50
2008,06,06,14,33,5.90
2008,06,06,14,34,6.50
2008,06,06,14,35,7.20
2008,06,06,14,36,3.70
2008,06,06,14,37,5.10
2008,06,06,14,38,6.70
2008,06,06,14,39,5.70
2008,06,06,14,40,6.00
2008,06,06,14,41,3.80
2008,06,06,14,42,8.40
2008,06,06,14,43,8.00
2008,06,06,14,44,5.60
2008,06,06,14,45,3.00
2008,06,06,14,46,4.90
2008,06,06,14,47,7.10
2008,06,06,14,48,5.00
2008,06,06,14,49,7.90
2008,06,06,14,50,9.70
2008,06,06,14,51,8.00
2008,06,06,14,52,5.50
2008,06,06,14,53,5.90
2008,06,06,14,54,2.70
2008,06,06,14,55,4.20
2008,06,06,14,56,5.70
2008,06,06,14,57,4.50
2008,06,06,14,58,3.80
2008,06,06,14,59,4.90
2008,06,06,15,00,7.00
2008,06,06,15,01,8.30
2008,06,06,15,02,4.80
2008,06,06,15,03,5.70
2008,06,06,15,04,9.10
2008,06,06,15,05,7.90
2008,06,06,15,06,6.00
2008,06,06,15,07,6.30
2008,06,06,15,08,3.70
2008,06,06,15,09,3.50
2008,06,06,15,10,9.10
2008,06,06,15,11,7.10
2008,06,06,15,12,6.10
2008,06,06,15,13,4.10
2008,06,06,15,14,2.60
2008,06,06,15,15,3.10
2008,06,06,15,16,4.10
2008,06,06,15,17,2.40
2008,06,06,15,18,2.90
2008,06,06,15,19,1.80
2008,06,06,15,20,1.10
2008,06,06,15,21,0.20
2008,06,06,15,22,1.40
2008,06,06,15,23,2.50
2008,06,06,15,24,4.40
2008,06,06,15,25,2.60
2008,06,06,15,26,0.90
2008,06,06,15,27,0.80
2008,06,06,15,28,1.10
2008,06,06,15,29,1.90
2008,06,06,15,30,3.20
2008,06,06,15,31,3.10
2008,06,06,15,32,0.70
2008,06,06,15,33,0.60
2008,06,06,15,34,1.20
2008,06,06,15,35,0.60
2008,06,06,15,36,0.80
2008,06,06,15,37,4.60
2008,06,06,15,38,4.90
2008,06,06,15,39,0.70
2008,06,06,15,40,2.40
2008,06,06,15,41,6.50
2008,06,06,15,42,9.40
2008,06,06,15,43,8.30
2008,06,06,15,44,5.30
2008,06,06,15,45,0.30
2008,06,06,15,46,1.10
2008,06,06,15,47,5.70
2008,06,06,15,48,4.70
2008,06,06,15,49,4.30
2008,06,06,15,50,3.50
2008,06,06,15,51,0.60
2008,06,06,15,52,4.40
2008,06,06,15,53,3.90
2008,06,06,15,54,2.70
2008,06,06,15,55,6.10
2008,06,06,15,56,2.90
2008,06,06,15,57,4.20
2008,06,06,15,58,1.90
2008,06,06,15,59,2.50
2008,06,06,16,00,4.30
2008,06,06,16,01,2.40
2008,06,06,16,02,3.30
2008,06,06,16,03,2.60
2008,06,06,16,04,3.90
2008,06,06,16,05,6.50
2008,06,06,16,06,5.00
2008,06,06,16,07,6.20
2008,06,06,16,08,4.10
2008,06,06,16,09,3.80
2008,06,06,16,10,3.80
2008,06,06,16,11,1.40
2008,06,06,16,12,7.50
2008,06,06,16,13,4.90
2008,06,06,16,14,7.30
2008,06,06,16,15,5.70
2008,06,06,16,16,6.20
2008,06,06,16,17,4.30
2008,06,06,16,18,5.60
2008,06,06,16,19,6.00
2008,06,06,16,20,3.60
2008,06,06,16,21,5.00
2008,06,06,16,22,4.40
2008,06,06,16,23,3.60
2008,06,06,16,24,5.20
2008,06,06,16,25,5.00
2008,06,06,16,26,5.70
2008,06,06,16,27,4.90
2008,06,06,16,28,4.40
2008,06,06,16,29,4.90
2008,06,06,16,30,7.10
2008,06,06,16,31,5.40
2008,06,06,16,32,6.70
2008,06,06,16,33,5.60
2008,06,06,16,34,4.70
2008,06,06,16,35,6.20
2008,06,06,16,36,6.50
2008,06,06,16,37,5.60
2008,06,06,16,38,6.90
2008,06,06,16,39,8.30
2008,06,06,16,40,7.60
2008,06,06,16,41,3.80
2008,06,06,16,42,6.90
2008,06,06,16,43,6.10
2008,06,06,16,44,6.00
2008,06,06,16,45,7.00
2008,06,06,16,46,8.90
2008,06,06,16,47,7.00
2008,06,06,16,48,5.10
2008,06,06,16,49,8.00
2008,06,06,16,50,8.00
2008,06,06,16,51,8.60
2008,06,06,16,52,10.10
2008,06,06,16,53,5.90
2008,06,06,16,54,5.40
2008,06,06,16,55,6.80
2008,06,06,16,56,6.00
2008,06,06,16,57,4.90
2008,06,06,16,58,4.90
2008,06,06,16,59,6.50
2008,06,06,17,00,4.50
2008,06,06,17,01,2.80
2008,06,06,17,02,5.00
2008,06,06,17,03,7.60
2008,06,06,17,04,6.70
2008,06,06,17,05,9.10
2008,06,06,17,06,7.60
2008,06,06,17,07,10.50
2008,06,06,17,08,7.40
2008,06,06,17,09,6.20
2008,06,06,17,10,8.70
2008,06,06,17,11,5.20
2008,06,06,17,12,7.20
2008,06,06,17,13,5.70
2008,06,06,17,14,5.40
2008,06,06,17,15,6.80
2008,06,06,17,16,7.70
2008,06,06,17,17,8.50
2008,06,06,17,18,8.00
2008,06,06,17,19,6.60
2008,06,06,17,20,7.20
2008,06,06,17,21,6.90
2008,06,06,17,22,7.40
2008,06,06,17,23,9.00
2008,06,06,17,24,5.00
2008,06,06,17,25,9.60
2008,06,06,17,26,7.10
2008,06,06,17,27,10.70
2008,06,06,17,28,7.30
2008,06,06,17,29,9.70
2008,06,06,17,30,9.60
2008,06,06,17,31,9.20
2008,06,06,17,32,8.80
2008,06,06,17,33,4.70
2008,06,06,17,34,8.30
2008,06,06,17,35,9.00
2008,06,06,17,36,8.70
2008,06,06,17,37,8.60
2008,06,06,17,38,7.90
2008,06,06,17,39,7.70
2008,06,06,17,40,6.70
2008,06,06,17,41,5.20
2008,06,06,17,42,6.20
2008,06,06,17,43,4.90
2008,06,06,17,44,6.50
2008,06,06,17,45,7.10
2008,06,06,17,46,7.10
2008,06,06,17,47,10.40
2008,06,06,17,48,10.20
2008,06,06,17,49,7.80
2008,06,06,17,50,6.30
2008,06,06,17,51,9.60
2008,06,06,17,52,10.60
2008,06,06,17,53,9.40
2008,06,06,17,54,10.90
2008,06,06,17,55,12.20
2008,06,06,17,56,6.30
2008,06,06,17,57,6.30
2008,06,06,17,58,9.10
2008,06,06,17,59,8.00
2008,06,06,18,00,8.70
2008,06,06,18,01,6.80
2008,06,06,18,02,5.40
2008,06,06,18,03,3.30
2008,06,06,18,04,5.60
2008,06,06,18,05,4.20
2008,06,06,18,06,4.60